[[{"header":{"parameterUnit":"m.s-1","parameterCategory":2,"la1":30.2991,"la2":30.254,"lo1":-89.0895,"lo2":-89.0444,"dy":0.0017,"dx":0.0017,"nx":28,"ny":28,"refTime":"2025-03-23T03:00:00:Z","depth":"0","parameterNumber":2,"parameterNumberName":"U-component_of_CURRENTS"},"data":[0,0,0,0,0,0,0,0,0,0,0,0,0,0,0,0,0,0,0,0,0,0,0,0,0,0,0,0,0,0,0,0,0,0,0,0,0,0,0,0,0,0,0,0,0,0,0,0,0,0,0,0,0,0,0,0,0,0,0.3351,0.3351,0,0.3418,0.3419,0.342,0.3411,0.341,0.3408,0.3407,0.344,0.3442,0.3444,0,0,0,0,0,0,0,0,0,0,0,0,0,0.3408,0.3406,0.3351,0.3351,0.3352,0.3418,0.3419,0.342,0.3411,0.341,0.3408,0.3406,0.3439,0.3442,0.3444,0,0,0,0,0,0,0,0,0,0,0,0,0,0.3421,0.3405,0.335,0.3354,0.3355,0.3418,0.3419,0.3421,0.3411,0.3409,0.3408,0.3406,0.3438,0.3441,0.3444,0.3503,0,0,0.3454,0.3455,0,0,0,0,0,0,0,0,0.342,0.3419,0.3353,0.3354,0.3355,0.3402,0.3451,0.3446,0.3412,0.3392,0.3407,0.3405,0.3424,0.3428,0.3449,0.3504,0.3505,0.3454,0.3456,0.3457,0.3458,0,0,0,0,0,0,0,0.3419,0.3418,0.3379,0.3354,0.3355,0.3419,0.3417,0.3451,0.3419,0.3394,0.3393,0.3398,0.3424,0.3446,0.3449,0.3506,0.3454,0.3457,0.3459,0.346,0.3608,0.361,0,0,0,0,0,0,0.3398,0.3415,0.3377,0.3381,0.3381,0.3418,0.3416,0.3391,0.3419,0.3422,0.3399,0.3397,0.3441,0.3446,0.345,0.3542,0.3457,0.346,0.3462,0.3606,0.3608,0.361,0,0,0,0,0,0,0.3399,0.3393,0.3374,0.3401,0.3402,0.3417,0.339,0.3393,0.3411,0.3424,0.3425,0.3413,0.344,0.3446,0.3485,0.3542,0.3462,0.3465,0.3603,0.3606,0.3609,0.3711,0,0,0,0,0,0,0.34,0.3392,0.3393,0.3398,0.34,0.3423,0.3392,0.3396,0.3416,0.3414,0.3437,0.3437,0.3439,0.348,0.3488,0.3545,0.3467,0.3601,0.3605,0.3608,0.3705,0.3718,0.3728,0,0,0,0,0,0.3401,0.3409,0.3392,0.3389,0.3389,0.3425,0.3434,0.344,0.3418,0.3445,0.345,0.3437,0.351,0.3485,0.3493,0.3552,0.3599,0.3603,0.3608,0.37,0.3715,0.3728,0,0,0,0,0,0,0.3445,0.3409,0.339,0.3387,0.3407,0.3422,0.3454,0.3448,0.3475,0.3467,0.3465,0.3469,0.3528,0.3522,0.3494,0.3604,0.3552,0.3559,0.362,0.3634,0.3645,0.3661,0.347,0,0,0,0,0,0.345,0.3439,0.3426,0.3432,0.3436,0.3444,0.3464,0.3462,0.3477,0.3487,0.3498,0.3515,0.3558,0.3577,0.3606,0.3669,0.3704,0.371,0.3721,0.3731,0.375,0.3848,0.3871,0.3625,0.3625,0.3625,0,0,0.3471,0.3452,0.3447,0.3442,0.3453,0.3481,0.3452,0.3481,0.3516,0.3488,0.3542,0.3557,0.3582,0.3652,0.3678,0.3652,0.3825,0.3737,0.3745,0.3759,0.3856,0.388,0.3901,0.3629,0.3628,0.3627,0,0,0.3514,0.3485,0.3491,0.3506,0.3517,0.3525,0.353,0.3542,0.356,0.3612,0.3605,0.3653,0.3702,0.3743,0.3769,0.3861,0.388,0.3864,0.3942,0.4038,0.4059,0.4078,0.4179,0.4206,0.3871,0.3871,0.3871,0,0.3544,0.3531,0.3512,0.3531,0.3553,0.354,0.3573,0.3604,0.3632,0.3661,0.3637,0.3742,0.3757,0.3863,0.3895,0.3892,0.3946,0.3889,0.4055,0.4075,0.4093,0.419,0.4219,0.3877,0.3876,0.3875,0.3875,0,0.3588,0.3588,0.3602,0.3604,0.3639,0.3664,0.3687,0.3721,0.3731,0.3758,0.385,0.3883,0.394,0.3965,0.3963,0.4101,0.41,0.4059,0.4024,0.4124,0.422,0.4249,0.3885,0.3883,0.3881,0.388,0,0,0.3603,0.3624,0.3626,0.364,0.3671,0.3699,0.3767,0.3825,0.3883,0.3919,0.4014,0.4088,0.4091,0.4121,0.4133,0.4223,0.4403,0.4203,0.4205,0.4309,0.4637,0.4555,0.4578,0.4395,0.44,0.4404,0.4662,0,0.3636,0.3679,0.3688,0.3746,0.3766,0.3791,0.3867,0.3925,0.3978,0.4069,0.4118,0.4209,0.4156,0.4206,0.4284,0.4381,0.4479,0.4338,0.4518,0.4524,0.4445,0.4608,0.4325,0.4523,0.4689,0.4694,0.4697,0,0.3655,0.3681,0.3737,0.3802,0.3818,0.3864,0.397,0.4038,0.4157,0.4209,0.4288,0.4324,0.4463,0.44,0.4611,0.4526,0.4592,0.4657,0.4667,0.4573,0.4494,0.4445,0.4568,0.4431,0.4741,0.4737,0.4734,0,0.3649,0.3707,0.3753,0.3773,0.3856,0.39,0.3957,0.4072,0.4171,0.4303,0.4401,0.451,0.4623,0.4709,0.4802,0.4735,0.5043,0.4956,0.4949,0.4945,0.473,0.4696,0.4741,0.5118,0.5118,0.5117,0.5116,0,0.3654,0.3683,0.375,0.3769,0.386,0.3912,0.4038,0.4109,0.4269,0.4414,0.4467,0.462,0.4713,0.4867,0.49,0.503,0.5117,0.5016,0.5023,0.4757,0.4725,0.461,0.456,0.5127,0.5125,0.5123,0.5121,0,0.3629,0.3664,0.3721,0.3812,0.3849,0.3914,0.4083,0.4202,0.4325,0.4527,0.4586,0.478,0.4964,0.5042,0.5236,0.5186,0.5143,0.5305,0.4989,0.4951,0.475,0.4716,0.4674,0.4541,0.5346,0.5346,0.5346,0,0.3616,0.3642,0.3749,0.3817,0.3857,0.3968,0.4083,0.4217,0.4353,0.4626,0.4743,0.497,0.5099,0.5331,0.5287,0.5342,0.5182,0.5122,0.4922,0.4753,0.4722,0.4559,0.4437,0.4699,0.4694,0.4689,0.4686,0,0.3621,0.3662,0.3737,0.3869,0.3976,0.4084,0.4232,0.4331,0.4521,0.4673,0.4891,0.5008,0.5187,0.5107,0.5158,0.5139,0.4835,0.5032,0.4936,0.4307,0.4054,0.392,0.4535,0.4646,0.465,0.4653,0.4655,0.4656,0.3652,0.372,0.3842,0.3955,0.4072,0.4169,0.4208,0.4369,0.4521,0.4644,0.486,0.4902,0.4894,0.4901,0.4866,0.4577,0.4625,0.4372,0.4383,0.4263,0.3999,0.4542,0.4593,0.4597,0.46,0.4603,0.4605,0,0.3716,0.3808,0.3934,0.4047,0.4127,0.4179,0.4303,0.4288,0.4366,0.4495,0.4585,0.4493,0.4399,0.434,0.4111,0.3926,0.3729,0.3813,0.3493,0.3435,0.3985,0.3813,0.3598,0.3598,0.3598,0.3598,0.3598,0.3598,0.3768,0.3902,0.3959,0.4066,0.4119,0.4117,0.4124,0.4086,0.4108,0.3991,0.3879,0.3885,0.3913,0.383,0.3561,0.3458,0.3197,0.3032,0.3123,0.347,0.352,0.3568,0.3393,0.3093,0.3093,0.2336,0.2331,0.2326]},{"header":{"parameterUnit":"m.s-1","parameterCategory":2,"la1":30.2991,"la2":30.254,"lo1":-89.0895,"lo2":-89.0444,"dy":0.0017,"dx":0.0017,"nx":28,"ny":28,"refTime":"2025-03-23T03:00:00:Z","depth":"0","parameterNumber":3,"parameterNumberName":"V-component_of_CURRENTS"},"data":[0,0,0,0,0,0,0,0,0,0,0,0,0,0,0,0,0,0,0,0,0,0,0,0,0,0,0,0,0,0,0,0,0,0,0,0,0,0,0,0,0,0,0,0,0,0,0,0,0,0,0,0,0,0,0,0,0,0,0.0116,0.0116,0,0.0054,0.0053,0.0052,0.0004,0.0004,0.0004,0.0004,-0.0063,-0.0064,-0.0066,0,0,0,0,0,0,0,0,0,0,0,0,0,0.0126,0.0126,0.0116,0.0116,0.0115,0.0054,0.0053,0.0052,0.0004,0.0004,0.0004,0.0004,-0.0062,-0.0064,-0.0066,0,0,0,0,0,0,0,0,0,0,0,0,0,0.0096,0.0126,0.0116,0.0086,0.0083,0.0054,0.0053,0.0051,0.0004,0.0004,0.0004,0.0003,-0.0061,-0.0064,-0.0066,-0.0074,0,0,-0.0073,-0.0074,0,0,0,0,0,0,0,0,0.0098,0.0096,0.0091,0.0088,0.0084,0.0039,0.0032,0.001,0.0005,0.0032,0.0004,0.0003,-0.0027,-0.0032,-0.0047,-0.0077,-0.008,-0.0073,-0.0075,-0.0076,-0.0076,0,0,0,0,0,0,0,0.01,0.0098,0.0089,0.009,0.0086,0.0052,0.0048,0.0027,0.0003,0.0029,0.0026,0.0023,-0.003,-0.0044,-0.0049,-0.0081,-0.0073,-0.0075,-0.0077,-0.0078,-0.0102,-0.0101,0,0,0,0,0,0,0.0117,0.01,0.0091,0.0087,0.0093,0.0053,0.0048,0.0052,0.0003,-0.0004,0.0024,0.0021,-0.004,-0.0046,-0.0051,-0.0028,-0.0076,-0.0078,-0.0079,-0.0103,-0.0102,-0.0101,0,0,0,0,0,0,0.0117,0.0117,0.0094,0.0094,0.0089,0.0053,0.0058,0.0051,0.004,-0.0001,-0.0008,0.0021,-0.0041,-0.0048,-0.0063,-0.0032,-0.0079,-0.0081,-0.0104,-0.0102,-0.0101,-0.0005,0,0,0,0,0,0,0.0118,0.0118,0.0122,0.0095,0.0089,0.0088,0.0058,0.005,0.0039,0.0036,-0.0005,-0.0012,-0.0042,-0.0059,-0.0065,-0.0037,-0.0083,-0.0105,-0.0103,-0.0102,-0.0009,-0.0,0.0007,0,0,0,0,0,0.0119,0.0131,0.0122,0.0121,0.0098,0.0089,0.0082,0.0054,0.004,0.0041,0.0012,-0.0011,-0.0054,-0.006,-0.0068,-0.0039,-0.0105,-0.0104,-0.0102,-0.0012,-0.0002,0.0007,0,0,0,0,0,0,0.0133,0.0126,0.0117,0.0125,0.0113,0.0082,0.0079,0.0062,0.0038,0.0035,-0.0005,-0.0014,-0.0015,-0.0044,-0.005,-0.0043,-0.0082,-0.0081,-0.0011,-0.0002,0.0006,0.006,-0.0085,0,0,0,0,0,0.0141,0.0149,0.0135,0.014,0.0139,0.0111,0.0102,0.0086,0.0064,0.0053,0.0025,-0.0001,-0.0014,-0.0021,-0.0045,-0.0042,-0.0039,-0.0028,-0.002,-0.0013,0.0025,0.0052,0.0067,-0.0095,-0.0095,-0.0096,0,0,0.0147,0.0144,0.0147,0.0143,0.0131,0.0144,0.0105,0.01,0.0112,0.005,0.0054,0.0023,-0.0009,-0.0006,-0.0008,-0.0024,0.003,-0.0011,-0.0005,0.003,0.0056,0.0072,0.0086,-0.0094,-0.0095,-0.0095,0,0,0.0174,0.0165,0.0187,0.0185,0.0178,0.0165,0.017,0.0148,0.0139,0.0134,0.0101,0.01,0.0057,0.0061,0.0053,0.0093,0.0068,0.0069,0.0159,0.0184,0.0199,0.0212,0.0223,0.0236,0.0077,0.0077,0.0077,0,0.0183,0.0211,0.019,0.0214,0.0223,0.0184,0.0216,0.0202,0.0176,0.0189,0.0147,0.014,0.0103,0.0149,0.0155,0.0118,0.0116,0.0126,0.0198,0.0211,0.0223,0.0231,0.0245,0.0082,0.0081,0.0081,0.008,0,0.0234,0.0254,0.0268,0.0292,0.0296,0.0313,0.0302,0.0306,0.0286,0.0278,0.0304,0.0262,0.0271,0.0248,0.021,0.0279,0.0244,0.0204,0.0183,0.0246,0.0249,0.0262,0.0089,0.0087,0.0086,0.0085,0,0,0.0266,0.0301,0.0307,0.0335,0.0343,0.0355,0.0385,0.0413,0.0454,0.0421,0.0489,0.0455,0.0442,0.0435,0.0395,0.0412,0.0472,0.0347,0.0346,0.0375,0.0521,0.0459,0.0465,0.0438,0.0441,0.0443,0.0486,0,0.0318,0.0387,0.0387,0.0448,0.0486,0.0474,0.0509,0.0525,0.053,0.0579,0.0565,0.0596,0.0509,0.0525,0.0532,0.0503,0.0511,0.0464,0.0443,0.0443,0.0394,0.048,0.0443,0.0476,0.0498,0.05,0.0501,0,0.0378,0.0418,0.0492,0.0547,0.0562,0.0586,0.0655,0.0682,0.0734,0.0746,0.0787,0.0769,0.082,0.0718,0.0727,0.0698,0.0624,0.0581,0.0581,0.0508,0.0405,0.0417,0.0497,0.0309,0.052,0.0519,0.0517,0,0.0428,0.0493,0.0558,0.0576,0.0626,0.0659,0.0685,0.0735,0.0794,0.0871,0.0938,0.096,0.101,0.0941,0.0846,0.0794,0.084,0.0753,0.0627,0.062,0.0582,0.0567,0.0499,0.075,0.075,0.075,0.075,0,0.0491,0.0541,0.0584,0.0619,0.0698,0.0712,0.0807,0.0838,0.0933,0.1053,0.1034,0.1153,0.1069,0.1074,0.0937,0.0847,0.0912,0.0683,0.0646,0.0609,0.0597,0.0423,0.0309,0.0751,0.0751,0.0751,0.075,0,0.0535,0.0565,0.0637,0.0698,0.0722,0.0774,0.0875,0.0961,0.1032,0.1204,0.1247,0.1335,0.136,0.124,0.1163,0.0989,0.0764,0.081,0.0766,0.0722,0.0402,0.0294,0.0195,0.0112,0.0698,0.0697,0.0696,0,0.0567,0.0613,0.0688,0.0737,0.0763,0.0845,0.0922,0.1001,0.1119,0.1332,0.1444,0.1525,0.1623,0.1479,0.1203,0.0978,0.0769,0.074,0.0627,0.042,0.0273,0.0178,0.0109,0.0609,0.0607,0.0606,0.0605,0,0.0624,0.0643,0.0693,0.08,0.0877,0.0991,0.1111,0.1222,0.1372,0.1546,0.1792,0.1891,0.176,0.156,0.1208,0.1013,0.0583,0.0705,0.0521,0.024,0.0109,-0.0001,0.0528,0.0595,0.0596,0.0596,0.0597,0.0597,0.0653,0.0692,0.0763,0.0868,0.0978,0.1149,0.1269,0.1446,0.1675,0.197,0.204,0.2242,0.1848,0.1397,0.1103,0.0495,0.0509,0.0287,0.0189,0.0125,0.0,0.0497,0.0491,0.0492,0.0492,0.0492,0.0493,0,0.0692,0.0744,0.0842,0.098,0.1136,0.1184,0.1418,0.1581,0.1886,0.2155,0.2378,0.2298,0.1811,0.1283,0.0455,0.0048,-0.0105,-0.017,-0.0307,-0.0341,0.0138,0.0086,-0.0045,-0.0045,-0.0044,-0.0044,-0.0044,-0.0044,0.0714,0.0797,0.0855,0.1101,0.1224,0.1454,0.1605,0.1862,0.2093,0.2415,0.2551,0.2616,0.214,0.0714,-0.0212,-0.0402,-0.0691,-0.0773,-0.0875,-0.0568,-0.0533,-0.05,-0.0574,-0.0841,-0.0842,-0.1321,-0.1326,-0.133]}],[{"header":{"parameterUnit":"m.s-1","parameterCategory":2,"la1":30.2991,"la2":30.254,"lo1":-89.0895,"lo2":-89.0444,"dy":0.0017,"dx":0.0017,"nx":28,"ny":28,"refTime":"2025-03-23T03:00:00:Z","depth":"2","parameterNumber":2,"parameterNumberName":"U-component_of_CURRENTS"},"data":[0,0,0,0,0,0,0,0,0,0,0,0,0,0,0,0,0,0,0,0,0,0,0,0,0,0,0,0,0,0,0,0,0,0,0,0,0,0,0,0,0,0,0,0,0,0,0,0,0,0,0,0,0,0,0,0,0,0,0.2544,0.2544,0,0.2591,0.2591,0.2592,0.2583,0.2583,0.2582,0.2581,0.2608,0.2609,0.261,0,0,0,0,0,0,0,0,0,0,0,0,0,0.2513,0.2513,0.2544,0.2545,0.2545,0.2591,0.2591,0.2592,0.2584,0.2583,0.2582,0.2581,0.2607,0.2609,0.2611,0,0,0,0,0,0,0,0,0,0,0,0,0,0.2539,0.2513,0.2544,0.2547,0.2548,0.2591,0.2591,0.2592,0.2584,0.2583,0.2582,0.258,0.2607,0.2609,0.2611,0.2646,0,0,0.2617,0.2618,0,0,0,0,0,0,0,0,0.2537,0.254,0.2546,0.2547,0.2548,0.2581,0.259,0.2609,0.2584,0.2569,0.2581,0.258,0.2598,0.2601,0.2611,0.2647,0.2648,0.2617,0.2619,0.262,0.262,0,0,0,0,0,0,0,0.2535,0.2538,0.2561,0.2547,0.2548,0.2569,0.2571,0.2594,0.2588,0.257,0.257,0.2577,0.2598,0.2609,0.2612,0.2648,0.2617,0.2619,0.262,0.2621,0.2755,0.2757,0,0,0,0,0,0,0.2529,0.2536,0.256,0.2563,0.2541,0.2571,0.2572,0.2571,0.2588,0.2591,0.2578,0.2577,0.2606,0.2609,0.2613,0.2698,0.2619,0.2621,0.2623,0.2752,0.2755,0.2757,0,0,0,0,0,0,0.2528,0.2531,0.2558,0.2552,0.2557,0.2572,0.257,0.2572,0.2593,0.2595,0.2596,0.2598,0.2605,0.261,0.264,0.2697,0.2622,0.2624,0.275,0.2753,0.2756,0.2842,0,0,0,0,0,0,0.2527,0.253,0.2536,0.2551,0.2557,0.2587,0.2572,0.2574,0.2599,0.2598,0.2612,0.2613,0.2605,0.2637,0.2642,0.2699,0.2626,0.2747,0.2751,0.2755,0.2836,0.2847,0.2857,0,0,0,0,0,0.2526,0.2537,0.2535,0.2539,0.2561,0.2588,0.2593,0.26,0.2601,0.2614,0.2624,0.2613,0.2669,0.264,0.2646,0.2704,0.2745,0.275,0.2755,0.2831,0.2845,0.2857,0,0,0,0,0,0,0.2526,0.2538,0.2536,0.255,0.2569,0.2587,0.2605,0.2613,0.2634,0.2634,0.2634,0.2636,0.2688,0.2684,0.2653,0.2756,0.2709,0.2716,0.2765,0.2779,0.2789,0.2789,0.2628,0,0,0,0,0,0.2529,0.2543,0.2554,0.257,0.2578,0.2597,0.2613,0.2617,0.2635,0.2643,0.2651,0.2673,0.2715,0.2733,0.2752,0.2807,0.2826,0.2851,0.2862,0.2871,0.2876,0.295,0.2968,0.2774,0.2774,0.2774,0,0,0.2534,0.2546,0.2553,0.2573,0.2588,0.2617,0.2604,0.2631,0.2664,0.2645,0.2689,0.2707,0.2736,0.2794,0.2819,0.2798,0.2942,0.2878,0.2886,0.2885,0.2958,0.2977,0.2993,0.2778,0.2777,0.2777,0,0,0.2556,0.2561,0.2579,0.2599,0.2625,0.2641,0.2653,0.2673,0.2688,0.2741,0.2739,0.2788,0.284,0.2871,0.2899,0.2985,0.2993,0.2998,0.306,0.3133,0.3149,0.3164,0.3235,0.3255,0.3009,0.3009,0.3009,0,0.2564,0.2583,0.2591,0.2619,0.2638,0.2656,0.2681,0.2716,0.2744,0.2768,0.2764,0.287,0.2886,0.2979,0.3009,0.3012,0.3048,0.3008,0.3147,0.3162,0.3175,0.3244,0.3265,0.3014,0.3013,0.3013,0.3012,0,0.2594,0.2618,0.2635,0.2674,0.2697,0.2724,0.2759,0.2787,0.2819,0.2856,0.2942,0.2977,0.3042,0.3068,0.3071,0.3181,0.3176,0.3148,0.3112,0.32,0.3267,0.3288,0.302,0.3019,0.3017,0.3016,0,0,0.2584,0.2642,0.265,0.267,0.2722,0.274,0.2802,0.2858,0.2922,0.297,0.3058,0.3138,0.3161,0.3194,0.321,0.3275,0.3412,0.3258,0.326,0.3326,0.3584,0.3447,0.3456,0.341,0.3413,0.3416,0.36,0,0.2604,0.2651,0.2681,0.2737,0.2757,0.2795,0.2865,0.2922,0.2987,0.308,0.3143,0.3242,0.3214,0.327,0.333,0.3395,0.3467,0.3365,0.349,0.3494,0.3359,0.3474,0.3195,0.3322,0.362,0.3623,0.3626,0,0.2615,0.2644,0.2687,0.2762,0.2778,0.283,0.292,0.2985,0.3117,0.3182,0.3276,0.3332,0.3452,0.3413,0.3572,0.3511,0.3556,0.3594,0.3602,0.3453,0.3394,0.3279,0.3348,0.366,0.3657,0.3655,0.3652,0,0.2578,0.2649,0.2678,0.27,0.2792,0.2831,0.2895,0.3014,0.3099,0.3253,0.3349,0.347,0.3574,0.364,0.3706,0.3665,0.3868,0.3821,0.374,0.3732,0.3505,0.3468,0.3932,0.3931,0.3931,0.393,0.393,0,0.2574,0.2598,0.2669,0.2688,0.2758,0.2823,0.2928,0.302,0.3185,0.3321,0.3405,0.3537,0.3639,0.3748,0.3773,0.3824,0.3929,0.3777,0.3776,0.3527,0.3492,0.3775,0.3755,0.3937,0.3936,0.3934,0.3933,0,0.2527,0.2569,0.2615,0.271,0.2742,0.2795,0.2948,0.303,0.3199,0.3381,0.3446,0.3643,0.3784,0.3846,0.3987,0.392,0.3972,0.3953,0.3648,0.3605,0.3777,0.3759,0.3909,0.3906,0.3903,0.3901,0.3899,0,0.2503,0.2516,0.2618,0.2647,0.2694,0.2778,0.2843,0.3019,0.3138,0.344,0.3541,0.3735,0.382,0.3947,0.3903,0.3913,0.3977,0.3629,0.3477,0.3793,0.3779,0.3765,0.3751,0.324,0.3233,0.3227,0.3222,0,0.2456,0.25,0.2554,0.2617,0.2676,0.2754,0.2886,0.2963,0.3196,0.3345,0.3558,0.3642,0.378,0.3648,0.3641,0.3605,0.3593,0.3507,0.3963,0.3257,0.3168,0.3151,0.3159,0.317,0.3176,0.3179,0.3182,0.3184,0.2441,0.2439,0.2509,0.2588,0.2657,0.2721,0.2734,0.2879,0.3017,0.3188,0.339,0.3401,0.3449,0.3278,0.3184,0.3108,0.3346,0.3171,0.3188,0.3211,0.3069,0.2976,0.2918,0.2922,0.2925,0.2928,0.293,0,0.2409,0.2414,0.2452,0.2524,0.2578,0.2663,0.275,0.2702,0.276,0.2942,0.3036,0.2798,0.272,0.2774,0.2579,0.2548,0.2514,0.2438,0.2376,0.2431,0.248,0.2296,0.1944,0.194,0.1937,0.1934,0,0,0.2364,0.2365,0.2366,0.243,0.2494,0.2496,0.2503,0.2431,0.2472,0.2407,0.242,0.2598,0.27,0.2287,0.2232,0.2056,0.2222,0.1975,0.2778,0.2763,0.2806,0.2926,0.2709,0,0,0,0,0]},{"header":{"parameterUnit":"m.s-1","parameterCategory":2,"la1":30.2991,"la2":30.254,"lo1":-89.0895,"lo2":-89.0444,"dy":0.0017,"dx":0.0017,"nx":28,"ny":28,"refTime":"2025-03-23T03:00:00:Z","depth":"2","parameterNumber":3,"parameterNumberName":"V-component_of_CURRENTS"},"data":[0,0,0,0,0,0,0,0,0,0,0,0,0,0,0,0,0,0,0,0,0,0,0,0,0,0,0,0,0,0,0,0,0,0,0,0,0,0,0,0,0,0,0,0,0,0,0,0,0,0,0,0,0,0,0,0,0,0,0.0067,0.0067,0,0.0016,0.0016,0.0015,-0.0021,-0.0021,-0.0021,-0.0022,-0.0078,-0.0079,-0.0081,0,0,0,0,0,0,0,0,0,0,0,0,0,0.0072,0.0072,0.0067,0.0067,0.0066,0.0016,0.0016,0.0015,-0.0021,-0.0021,-0.0021,-0.0022,-0.0078,-0.0079,-0.0081,0,0,0,0,0,0,0,0,0,0,0,0,0,0.0049,0.0072,0.0067,0.0043,0.004,0.0017,0.0016,0.0015,-0.0021,-0.0021,-0.0022,-0.0022,-0.0077,-0.0079,-0.0081,-0.0087,0,0,-0.0087,-0.0088,0,0,0,0,0,0,0,0,0.0051,0.0049,0.0047,0.0045,0.0042,0.0004,-0.0004,-0.0019,-0.0021,0.0001,-0.0022,-0.0022,-0.005,-0.0054,-0.0065,-0.009,-0.0092,-0.0087,-0.0088,-0.0089,-0.009,0,0,0,0,0,0,0,0.0052,0.0051,0.0046,0.0047,0.0043,0.0013,0.001,-0.0007,-0.0023,-0.0001,-0.0003,-0.0007,-0.0052,-0.0062,-0.0066,-0.0093,-0.0087,-0.0089,-0.009,-0.0091,-0.0111,-0.011,0,0,0,0,0,0,0.0064,0.0053,0.0048,0.0045,0.0047,0.0014,0.001,0.0016,-0.0023,-0.0029,-0.0007,-0.0009,-0.0059,-0.0064,-0.0068,-0.0055,-0.0089,-0.0091,-0.0092,-0.0111,-0.011,-0.011,0,0,0,0,0,0,0.0065,0.0065,0.005,0.0047,0.0044,0.0015,0.0021,0.0015,0.0007,-0.0027,-0.0033,-0.0009,-0.0059,-0.0065,-0.0076,-0.0058,-0.0092,-0.0094,-0.0112,-0.0111,-0.011,-0.0043,0,0,0,0,0,0,0.0065,0.0066,0.0069,0.0049,0.0044,0.0045,0.0021,0.0014,0.0005,0.0002,-0.0031,-0.0037,-0.006,-0.0072,-0.0077,-0.0062,-0.0095,-0.0113,-0.0111,-0.011,-0.0046,-0.004,-0.0035,0,0,0,0,0,0.0066,0.0076,0.007,0.0069,0.0053,0.0046,0.0041,0.0017,0.0005,0.0007,-0.0014,-0.0036,-0.0068,-0.0073,-0.008,-0.0064,-0.0113,-0.0112,-0.011,-0.0049,-0.0041,-0.0035,0,0,0,0,0,0,0.0075,0.0073,0.0066,0.0074,0.0065,0.004,0.0037,0.0023,0.0006,0.0003,-0.0029,-0.0036,-0.0039,-0.0061,-0.0066,-0.0066,-0.0094,-0.0093,-0.0044,-0.0038,-0.0032,-0.0007,-0.0097,0,0,0,0,0,0.0082,0.0091,0.008,0.0085,0.0085,0.0063,0.0055,0.0042,0.0026,0.0017,-0.0005,-0.0026,-0.0038,-0.0045,-0.0063,-0.0063,-0.008,-0.0057,-0.0051,-0.0046,-0.003,-0.0038,-0.0031,-0.0105,-0.0105,-0.0105,0,0,0.0085,0.0085,0.0088,0.0088,0.0078,0.0088,0.0057,0.0053,0.0062,0.0015,0.0017,-0.0009,-0.0034,-0.0034,-0.0037,-0.0049,-0.0037,-0.0044,-0.0039,-0.0026,-0.0036,-0.0028,-0.0022,-0.0104,-0.0104,-0.0104,0,0,0.0104,0.01,0.0118,0.0119,0.0114,0.0103,0.0107,0.009,0.0084,0.0081,0.0053,0.0044,0.0016,0.0009,0.0001,0.0029,-0.0008,0.0016,0.0068,0.006,0.0066,0.0072,0.005,0.0052,0.0022,0.0022,0.0022,0,0.0109,0.0133,0.012,0.014,0.0148,0.0117,0.0141,0.0132,0.0112,0.0119,0.0092,0.0072,0.0043,0.0061,0.0066,0.0044,0.0025,0.0045,0.0069,0.0074,0.0078,0.0054,0.0056,0.0025,0.0025,0.0024,0.0024,0,0.0148,0.0165,0.0176,0.0198,0.0201,0.0215,0.0208,0.0208,0.0192,0.0185,0.0192,0.0154,0.0149,0.0132,0.0105,0.0126,0.0097,0.0075,0.0054,0.009,0.0062,0.0063,0.003,0.0029,0.0028,0.0027,0,0,0.0169,0.02,0.0204,0.023,0.0237,0.0248,0.0266,0.0282,0.0309,0.0278,0.0316,0.0279,0.0259,0.0249,0.0215,0.0201,0.0202,0.0154,0.0152,0.0138,0.0172,0.0113,0.0108,0.0181,0.0181,0.0182,0.0137,0,0.0206,0.0261,0.0264,0.0314,0.0345,0.0333,0.036,0.0367,0.0366,0.0391,0.036,0.0377,0.0306,0.0311,0.0286,0.0235,0.0209,0.0215,0.0135,0.0133,0.0082,0.011,0.0138,0.0097,0.0138,0.0138,0.0138,0,0.0249,0.0283,0.0341,0.0391,0.0405,0.0426,0.0472,0.0495,0.0516,0.0519,0.0522,0.0499,0.0492,0.0421,0.0349,0.0354,0.0269,0.0213,0.0209,0.0137,0.0078,0.0069,0.0098,0.014,0.014,0.0139,0.0139,0,0.0284,0.0339,0.0391,0.0407,0.0454,0.0479,0.0505,0.0534,0.0588,0.0613,0.066,0.062,0.0635,0.0529,0.0403,0.0381,0.031,0.0268,0.013,0.0124,0.0125,0.0117,0.0206,0.0206,0.0206,0.0206,0.0206,0,0.033,0.0372,0.0412,0.0443,0.0517,0.0531,0.0621,0.0632,0.0698,0.0805,0.074,0.0815,0.0663,0.0604,0.0454,0.0303,0.0348,0.0149,0.0116,0.0146,0.0141,0.016,0.0155,0.0204,0.0204,0.0205,0.0205,0,0.0362,0.0386,0.0453,0.0511,0.0538,0.0593,0.0707,0.0791,0.0823,0.0964,0.0989,0.0975,0.0902,0.0719,0.0559,0.0391,0.0236,0.0159,0.0193,0.0164,0.0038,0.0037,0.0015,0.0013,0.0011,0.0009,0.0008,0,0.0383,0.042,0.0504,0.0569,0.06,0.0696,0.079,0.0848,0.096,0.1087,0.1177,0.1135,0.1133,0.0843,0.0551,0.0266,0.0227,0.0081,0.0037,0.0053,0.0022,0.0025,0.0026,0.0062,0.0061,0.0061,0.006,0,0.0428,0.0453,0.0513,0.0651,0.0753,0.0889,0.1023,0.1136,0.1256,0.135,0.1484,0.148,0.121,0.0928,0.0502,0.0313,0.0124,0.0055,0.0095,0.0095,0.0091,0.0062,0.0064,0.0054,0.0055,0.0055,0.0056,0.0056,0.0462,0.0526,0.0624,0.0758,0.089,0.1098,0.1244,0.139,0.157,0.1725,0.1697,0.1657,0.1322,0.0775,0.0439,0.0077,0.0093,-0.0049,-0.0043,-0.0038,-0.0035,-0.0044,-0.0105,-0.0105,-0.0106,-0.0106,-0.0106,0,0.053,0.062,0.0746,0.0935,0.1114,0.1162,0.1422,0.1562,0.1787,0.1838,0.1881,0.155,0.121,0.0824,0.0284,-0.0046,-0.0049,-0.0149,-0.0079,-0.0071,-0.0064,-0.006,-0.0139,-0.014,-0.0141,-0.0142,0,0,0.0584,0.0718,0.0802,0.1103,0.1252,0.1499,0.1666,0.1831,0.1905,0.1941,0.1868,0.1749,0.1294,0.0892,0.0463,0.016,0.0119,0.0101,0.0162,0.0304,0.0314,0.0027,0.0045,0,0,0,0,0]}],[{"header":{"parameterUnit":"m.s-1","parameterCategory":2,"la1":30.2991,"la2":30.254,"lo1":-89.0895,"lo2":-89.0444,"dy":0.0017,"dx":0.0017,"nx":28,"ny":28,"refTime":"2025-03-23T03:00:00:Z","depth":"4","parameterNumber":2,"parameterNumberName":"U-component_of_CURRENTS"},"data":[0,0,0,0,0,0,0,0,0,0,0,0,0,0,0,0,0,0,0,0,0,0,0,0,0,0,0,0,0,0,0,0,0,0,0,0,0,0,0,0,0,0,0,0,0,0,0,0,0,0,0,0,0,0,0,0,0,0,0.1544,0.1544,0,0.1551,0.1551,0.1551,0.158,0.1581,0.1582,0.1583,0.1636,0.1637,0.1638,0,0,0,0,0,0,0,0,0,0,0,0,0,0.1483,0.1485,0.1544,0.1544,0.1545,0.1551,0.1551,0.1551,0.158,0.1581,0.1582,0.1583,0.1636,0.1637,0.1638,0,0,0,0,0,0,0,0,0,0,0,0,0,0.15,0.1485,0.1544,0.1561,0.1563,0.1551,0.1551,0.1551,0.158,0.1581,0.1582,0.1584,0.1636,0.1637,0.1638,0.1618,0,0,0.1641,0.1641,0,0,0,0,0,0,0,0,0.1499,0.1502,0.1559,0.156,0.1562,0.1568,0.1549,0.1576,0.158,0.1571,0.1583,0.1584,0.1618,0.1621,0.1616,0.162,0.1623,0.1641,0.1641,0.1642,0.1642,0,0,0,0,0,0,0,0.1498,0.1502,0.1545,0.1559,0.1561,0.1544,0.1548,0.1554,0.1587,0.1572,0.1575,0.1578,0.1619,0.1614,0.1617,0.1623,0.1641,0.1641,0.1642,0.1642,0.1743,0.1745,0,0,0,0,0,0,0.1504,0.1501,0.1545,0.1545,0.1536,0.1545,0.1549,0.1563,0.1586,0.1591,0.1577,0.158,0.1612,0.1616,0.1619,0.1703,0.1642,0.1643,0.1643,0.1741,0.1743,0.1746,0,0,0,0,0,0,0.1503,0.1508,0.1544,0.1524,0.1528,0.1545,0.156,0.1563,0.1593,0.159,0.1595,0.1609,0.1613,0.1618,0.1661,0.1701,0.1643,0.1644,0.1738,0.1741,0.1744,0.1802,0,0,0,0,0,0,0.1501,0.1508,0.1531,0.1525,0.1529,0.1558,0.1559,0.1562,0.1592,0.1596,0.1618,0.1622,0.1615,0.166,0.1662,0.1702,0.1645,0.1736,0.174,0.1743,0.1798,0.1807,0.1815,0,0,0,0,0,0.1499,0.1517,0.1532,0.1538,0.1557,0.1559,0.156,0.1574,0.1593,0.1606,0.1632,0.1623,0.1687,0.1662,0.1664,0.1705,0.1734,0.1738,0.1743,0.1794,0.1805,0.1815,0,0,0,0,0,0,0.1498,0.1521,0.1538,0.1563,0.1573,0.1565,0.1585,0.1593,0.1621,0.1642,0.1641,0.1647,0.1704,0.1697,0.1669,0.1748,0.1713,0.1718,0.1751,0.1761,0.177,0.1767,0.1645,0,0,0,0,0,0.151,0.1536,0.1547,0.157,0.1584,0.1593,0.1602,0.1613,0.1629,0.1645,0.1659,0.1686,0.1718,0.1735,0.1754,0.1787,0.1797,0.1819,0.1828,0.1835,0.1837,0.1902,0.1917,0.1761,0.1761,0.1761,0,0,0.1514,0.1533,0.1548,0.1573,0.1589,0.1605,0.1603,0.163,0.1649,0.1646,0.1692,0.1719,0.1736,0.1781,0.1806,0.1784,0.1885,0.1841,0.1847,0.1845,0.1909,0.1924,0.1937,0.1764,0.1764,0.1763,0,0,0.1523,0.1561,0.1583,0.16,0.1631,0.1635,0.1652,0.1668,0.1691,0.1732,0.1746,0.1797,0.1831,0.185,0.1865,0.1933,0.1934,0.1949,0.1984,0.2048,0.2061,0.2073,0.2102,0.2116,0.1948,0.1948,0.1948,0,0.1533,0.1561,0.1587,0.1612,0.1628,0.1655,0.1674,0.1695,0.1723,0.1751,0.1763,0.185,0.1864,0.1923,0.195,0.1953,0.198,0.194,0.2059,0.207,0.2081,0.2108,0.2123,0.1951,0.1951,0.1951,0.195,0,0.1546,0.1583,0.1601,0.1644,0.1661,0.1686,0.1715,0.1749,0.1789,0.1814,0.1898,0.1926,0.198,0.1997,0.1994,0.208,0.2071,0.2066,0.2028,0.21,0.2124,0.2138,0.1956,0.1955,0.1954,0.1953,0,0,0.1531,0.1598,0.1608,0.1629,0.1684,0.1689,0.1744,0.1788,0.1841,0.1893,0.1958,0.2023,0.2062,0.2081,0.2095,0.214,0.2238,0.2139,0.2141,0.216,0.2369,0.2209,0.2208,0.2264,0.2267,0.2269,0.2353,0,0.1539,0.1579,0.1613,0.1651,0.1672,0.172,0.1765,0.1817,0.188,0.1952,0.2013,0.2091,0.2088,0.2136,0.2185,0.2239,0.2279,0.2214,0.2302,0.2304,0.2147,0.222,0.2278,0.2363,0.2366,0.2368,0.237,0,0.1536,0.1564,0.1603,0.1659,0.1677,0.1709,0.1789,0.1834,0.1946,0.2007,0.21,0.2157,0.2252,0.2235,0.2362,0.2329,0.2354,0.2376,0.238,0.2217,0.217,0.2279,0.2395,0.2393,0.2391,0.2389,0.2388,0,0.1485,0.1551,0.158,0.16,0.1673,0.1709,0.1756,0.186,0.1912,0.2056,0.2127,0.2246,0.2335,0.2393,0.2454,0.2431,0.2571,0.2545,0.2413,0.2401,0.2493,0.248,0.2618,0.2617,0.2617,0.2617,0.2617,0,0.1457,0.1483,0.1567,0.1577,0.1616,0.169,0.1763,0.183,0.1956,0.2027,0.2162,0.2239,0.2389,0.2479,0.2495,0.2501,0.2617,0.2427,0.2419,0.2514,0.2503,0.2502,0.2488,0.262,0.2619,0.2619,0.2618,0,0.1379,0.145,0.1475,0.1561,0.1591,0.1617,0.1731,0.1781,0.1935,0.2031,0.2085,0.2283,0.2419,0.2513,0.2631,0.2555,0.2567,0.253,0.2625,0.262,0.2339,0.2327,0.2392,0.2388,0.2384,0.238,0.2377,0,0.1339,0.1347,0.1427,0.1438,0.1477,0.1545,0.1587,0.1742,0.1798,0.2028,0.2053,0.2262,0.2369,0.2428,0.2529,0.2556,0.2517,0.249,0.2403,0.2333,0.2321,0.2315,0.2309,0.2371,0.237,0.2369,0.2368,0,0.1222,0.1265,0.1271,0.131,0.1352,0.1394,0.1475,0.1515,0.1702,0.1862,0.2,0.2092,0.2243,0.2351,0.24,0.2399,0.2491,0.2447,0.2454,0.2372,0.2308,0.2298,0.2297,0.2354,0.2356,0.2357,0.2358,0,0.1118,0.1097,0.1121,0.1151,0.1195,0.1222,0.1293,0.1387,0.1485,0.1755,0.1802,0.2031,0.2233,0.2269,0.2301,0.231,0.2265,0.2161,0.2183,0.2199,0.2094,0.1981,0.1929,0,0,0,0,0,0.1,0.0969,0.0961,0.0991,0.1035,0.1088,0.1197,0.129,0.1499,0.1547,0.1676,0.1807,0.1931,0.2053,0.2024,0.2172,0.2238,0.2121,0.212,0.2275,0.2292,0.2183,0,0,0,0,0,0,0.092,0.0889,0.0904,0.0855,0.0871,0.0919,0.1001,0.114,0.1192,0.1421,0.152,0.1681,0.1843,0.195,0.1996,0.202,0.1972,0.2257,0.2251,0.2266,0.2281,0.2294,0.2188,0,0,0,0,0]},{"header":{"parameterUnit":"m.s-1","parameterCategory":2,"la1":30.2991,"la2":30.254,"lo1":-89.0895,"lo2":-89.0444,"dy":0.0017,"dx":0.0017,"nx":28,"ny":28,"refTime":"2025-03-23T03:00:00:Z","depth":"4","parameterNumber":3,"parameterNumberName":"V-component_of_CURRENTS"},"data":[0,0,0,0,0,0,0,0,0,0,0,0,0,0,0,0,0,0,0,0,0,0,0,0,0,0,0,0,0,0,0,0,0,0,0,0,0,0,0,0,0,0,0,0,0,0,0,0,0,0,0,0,0,0,0,0,0,0,0.0093,0.0093,0,0.0073,0.0073,0.0073,0.0053,0.0052,0.0052,0.0052,0.0018,0.0017,0.0017,0,0,0,0,0,0,0,0,0,0,0,0,0,0.0092,0.0092,0.0093,0.0093,0.0093,0.0073,0.0073,0.0073,0.0053,0.0052,0.0052,0.0052,0.0018,0.0018,0.0017,0,0,0,0,0,0,0,0,0,0,0,0,0,0.0084,0.0092,0.0093,0.008,0.0079,0.0073,0.0073,0.0072,0.0053,0.0052,0.0052,0.0052,0.0019,0.0018,0.0017,0.002,0,0,0.0014,0.0013,0,0,0,0,0,0,0,0,0.0085,0.0084,0.0083,0.0081,0.008,0.0065,0.006,0.0054,0.0053,0.0063,0.0052,0.0051,0.0033,0.003,0.0028,0.0018,0.0017,0.0014,0.0013,0.0013,0.0012,0,0,0,0,0,0,0,0.0085,0.0085,0.0086,0.0082,0.008,0.0067,0.0066,0.0059,0.0051,0.0062,0.0061,0.0058,0.0032,0.0029,0.0027,0.0016,0.0014,0.0013,0.0012,0.0012,0.0009,0.0009,0,0,0,0,0,0,0.0089,0.0086,0.0086,0.0085,0.0081,0.0068,0.0066,0.007,0.0051,0.0047,0.0058,0.0057,0.0031,0.0028,0.0026,0.0037,0.0013,0.0012,0.0011,0.0008,0.0009,0.0009,0,0,0,0,0,0,0.0089,0.009,0.0087,0.0084,0.0083,0.0068,0.0073,0.007,0.0069,0.0048,0.0044,0.006,0.0031,0.0027,0.0024,0.0035,0.0011,0.0011,0.0008,0.0009,0.0009,0.0052,0,0,0,0,0,0,0.0089,0.009,0.0094,0.0085,0.0083,0.0089,0.0073,0.007,0.0068,0.0066,0.0049,0.0045,0.003,0.0026,0.0023,0.0033,0.001,0.0007,0.0008,0.0009,0.005,0.0054,0.0058,0,0,0,0,0,0.009,0.0097,0.0094,0.0094,0.0089,0.0089,0.0087,0.0075,0.0068,0.0072,0.0061,0.0045,0.003,0.0026,0.0023,0.0032,0.0007,0.0008,0.0009,0.0048,0.0053,0.0058,0,0,0,0,0,0,0.0095,0.0096,0.0092,0.0099,0.0096,0.0086,0.0086,0.008,0.0074,0.0072,0.0053,0.0048,0.0048,0.0036,0.0032,0.0034,0.0015,0.0016,0.0047,0.0051,0.0055,0.0059,0.0009,0,0,0,0,0,0.01,0.0108,0.0103,0.0108,0.0109,0.0099,0.0097,0.0092,0.0085,0.0082,0.0069,0.0058,0.005,0.0048,0.0036,0.0041,0.0013,0.0044,0.0048,0.0052,0.0053,0.0018,0.0018,0.0013,0.0013,0.0013,0,0,0.0103,0.0104,0.0108,0.011,0.0107,0.0117,0.0098,0.0099,0.0108,0.0079,0.0086,0.0069,0.0053,0.0056,0.0055,0.0048,0.0039,0.0053,0.0056,0.0056,0.0019,0.0019,0.002,0.0014,0.0014,0.0014,0,0,0.0116,0.0116,0.0129,0.0132,0.0132,0.0129,0.0132,0.0126,0.0124,0.013,0.0109,0.0098,0.0092,0.008,0.0074,0.0093,0.0058,0.0092,0.0118,0.0084,0.0084,0.0084,0.0049,0.0045,0.0097,0.0097,0.0097,0,0.0121,0.0138,0.0131,0.0146,0.0154,0.0138,0.0157,0.0154,0.0148,0.015,0.0138,0.0121,0.0103,0.0104,0.011,0.0101,0.0075,0.0103,0.0089,0.0088,0.0087,0.005,0.0045,0.0099,0.0099,0.0099,0.0099,0,0.0146,0.0161,0.0169,0.0187,0.0193,0.0206,0.0204,0.0207,0.0201,0.0198,0.0194,0.0166,0.0157,0.0149,0.0136,0.0126,0.0108,0.0095,0.0077,0.009,0.0051,0.0045,0.0103,0.0102,0.0101,0.0101,0,0,0.0157,0.0184,0.0188,0.0211,0.0219,0.0234,0.0244,0.0255,0.0272,0.025,0.0264,0.0237,0.0217,0.0208,0.0183,0.0153,0.012,0.0126,0.0123,0.009,0.0042,0.0029,0.002,0.0104,0.0103,0.0103,0.0018,0,0.0182,0.0224,0.0228,0.0273,0.0298,0.0292,0.0311,0.0316,0.0314,0.0322,0.0282,0.0286,0.0242,0.0241,0.0202,0.0147,0.0107,0.0144,0.0035,0.0032,0.0017,0.0014,0.01,0.0014,0.0012,0.0011,0.001,0,0.0208,0.0237,0.0284,0.0332,0.0343,0.0366,0.0398,0.0415,0.0411,0.0409,0.0388,0.0357,0.0316,0.0276,0.017,0.0196,0.0122,0.0068,0.0063,0.0031,0.0007,-0.0003,-0.0001,0.0,0.0001,0.0002,0.0002,0,0.023,0.0279,0.0323,0.0339,0.0383,0.0406,0.0431,0.0442,0.048,0.0467,0.0482,0.0416,0.04,0.0292,0.0174,0.0173,0.0049,0.0034,-0.0056,-0.0058,-0.0039,-0.0038,-0.0054,-0.0054,-0.0054,-0.0054,-0.0053,0,0.0257,0.0295,0.0342,0.037,0.0442,0.0451,0.0525,0.053,0.0559,0.0608,0.0535,0.0542,0.0404,0.0316,0.0191,0.0051,0.0057,-0.0055,-0.0081,-0.0019,-0.0014,-0.0044,-0.0042,-0.0057,-0.0056,-0.0055,-0.0055,0,0.0276,0.0299,0.0367,0.0428,0.0456,0.0512,0.061,0.0668,0.0666,0.0721,0.0721,0.0649,0.0529,0.0373,0.0202,0.0091,-0.0053,-0.0109,-0.0032,-0.0051,-0.0143,-0.0138,-0.0213,-0.0214,-0.0215,-0.0216,-0.0216,0,0.0288,0.0322,0.042,0.048,0.0515,0.0605,0.0681,0.0725,0.0784,0.0784,0.081,0.0712,0.0638,0.0393,0.0212,-0.0037,-0.0076,-0.0159,-0.0157,-0.0142,-0.016,-0.0153,-0.0146,-0.0218,-0.0218,-0.0219,-0.0219,0,0.0325,0.036,0.0427,0.0545,0.0639,0.075,0.0844,0.0892,0.0932,0.0932,0.0893,0.0752,0.0616,0.0407,0.0212,0.003,-0.0109,-0.0171,-0.017,-0.0169,-0.015,-0.0165,-0.0157,-0.0222,-0.0222,-0.0221,-0.0221,0,0.0364,0.0423,0.0514,0.0621,0.0736,0.0844,0.09,0.0962,0.1014,0.0989,0.0975,0.0804,0.0711,0.0441,0.0259,0.008,0.0031,-0.0036,-0.0043,-0.0041,0.0026,0.0077,0.0051,0,0,0,0,0,0.0403,0.0479,0.0582,0.0704,0.0813,0.0879,0.0987,0.1029,0.1053,0.1043,0.1008,0.0871,0.0598,0.0482,0.0303,0.0228,-0.0008,0.0009,-0.0089,-0.0242,-0.0238,-0.019,0,0,0,0,0,0,0.0438,0.054,0.0593,0.0742,0.0827,0.0962,0.1032,0.1058,0.1045,0.1028,0.0896,0.0811,0.0558,0.0703,0.0295,0.0238,0.0147,-0.0119,-0.0123,-0.0244,-0.024,-0.0237,-0.0186,0,0,0,0,0]}]]